Regional Weather Roundup
Issued by NWS

Home | Current Version | Previous Version | Text Only | Print | Product List | Glossary On
Versions: 1 2 3 4 5 6 7 8 9 10 11 12 13 14 15 16 17 18 19 20 21 22 23 24 25 26 27 28
000
ASUS45 KTFX 210110
RWRMT
MONTANA REGIONAL WEATHER ROUNDUP
NATIONAL WEATHER SERVICE GREAT FALLS MT
700 PM MDT THU JUL 20 2017

NOTE: "FAIR" INDICATES FEW OR NO CLOUDS BELOW 12000 FEET WITH NO
SIGNIFICANT WEATHER AND/OR OBSTRUCTIONS TO VISIBILITY.

MTZ001>007-043-210200-
WEST OF THE DIVIDE

CITY           SKY/WX    TMP DP  RH WIND       PRES   REMARKS
KALISPELL      SUNNY     83  40  21 W15G23    29.91S
MISSOULA       SUNNY     85  32  15 W16       29.95R
BUTTE          SUNNY     85  31  14 NW12      30.00R
MULLAN PASS    SUNNY     62  35  36 W8G20     30.16S
ANACONDA         N/A     84  36  17 W12G18    29.97S
DEER LODGE       N/A     81  37  21 NW17G29   29.97R
EUREKA           N/A     81  37  21 MISG      29.93R
HAMILTON         N/A     84  37  18 SW15G24   29.94R
LIBBY            N/A     81  37  21 W6        29.94R
PLAINS           N/A     82  44  26 W14       29.97R
$$

MTZ008-052>055-210200-
SOUTHWEST MONTANA

CITY           SKY/WX    TMP DP  RH WIND       PRES   REMARKS
BOZEMAN        SUNNY     93  27   9 W12       29.87F
DILLON         SUNNY     84  27  12 W24G33    29.93S
W YELLOWSTONE  SUNNY     77  43  29 SW14G21   30.13S
ENNIS          SUNNY     88  30  12 SW18G25   30.00F
THREE FORKS      N/A     93  28  10 NW9       29.87
TWIN BRIDGES     N/A     89  31  12 SW2       29.92S
$$

MTZ009-010-012-014-046-048-049-054-210200-
EAST SLOPES AND CENTRAL MONTANA

CITY           SKY/WX    TMP DP  RH WIND       PRES   REMARKS
CUT BANK       SUNNY     84  33  16 W21G30    29.88F
GREAT FALLS    PTSUNNY   89  24   9 W23G35    29.83S
HELENA         SUNNY     90  34  13 NW14      29.87S
CHOTEAU          N/A     86  34  15 W16G22    29.90R
CONRAD           N/A    N/A N/A N/A W17       29.90R
$$

MTZ011-013-016-021-045-047-050-051-210200-
NORTH CENTRAL MONTANA

CITY           SKY/WX    TMP DP  RH WIND       PRES   REMARKS
HAVRE          SUNNY     95  38  13 N9G25     29.72F HX  90
LEWISTOWN      SUNNY     88  35  15 N5        29.86F
N BAR RANCH      N/A     91  28  10 NE8       29.91S
CHINOOK          N/A     91  46  21 E12       29.72F
$$

MTZ017>020-022>027-061-062-210200-
NORTHEAST MONTANA

CITY           SKY/WX    TMP DP  RH WIND       PRES   REMARKS
GLASGOW        SUNNY     88  43  20 E28G33    29.77S
JORDAN           N/A     95  46  18 NE18      29.74F HX  91
SIDNEY         SUNNY     83  59  44 E17G30    29.79R
WOLF POINT     SUNNY     87  46  24 E23G35    29.79S
MALTA          SUNNY     91  46  21 E20       29.74F
PLENTYWOOD       N/A     79  57  47 E14G22    29.84R
POPLAR           N/A     84  50  30 NE18G28   29.79S
SCOBEY           N/A     84  52  33 E15       29.84R
$$

MTZ028>42-056>058-210200-
SOUTHCENTRAL AND SOUTHEAST MONTANA

CITY           SKY/WX    TMP DP  RH WIND       PRES   REMARKS
BAKER          CLOUDY    92  48  22 W12       29.79F
BILLINGS       CLOUDY    90  45  21 SW20G31   29.82F
LIVINGSTON     MOSUNNY   89  43  20 S8        29.88F
MILES CITY     CLOUDY    95  41  15 SW10      29.76F HX  91
BIG TIMBER     SUNNY     90  39  17 SW5       29.89F
EKALAKA          N/A     81  56  42 S3        29.83F
FORSYTH          N/A     95  45  17 S17G26    29.78R HX  91
LAUREL           N/A     87  47  24 S20       29.85R
$$

REGIONAL REPORTS...DAKOTAS

CITY           SKY/WX    TMP DP  RH WIND       PRES   REMARKS
WILLISTON      SUNNY     85  50  29 E18G26    29.82S
MINOT          CLOUDY    78  65  63 NE6       29.87R
DICKINSON      CLOUDY    73  61  65 E15       29.84R
BEACH            N/A     81  59  47 SE15G24   29.79R
CROSBY           N/A     73  63  68 S15       29.84S
TIOGA          PTSUNNY   75  72  88 E17       29.88R
WATFORD CITY     N/A     81  61  50 E15G24    29.81F
BISMARCK       LGT RAIN  86  53  32 E16       29.89R
GRAND FORKS    CLOUDY    82  63  52 SE7       29.91F
FARGO          CLOUDY    84  69  60 E5        29.91S
BUFFALO SD       N/A     68  64  87 E16       29.82F
RAPID CITY     SUNNY     93  58  30 S22       29.86F HX  92
$$

REGIONAL REPORTS...WYOMING/IDAHO/WASHINGTON

CITY           SKY/WX    TMP DP  RH WIND       PRES   REMARKS
GILLETTE       CLOUDY    85  49  28 N18G24    29.91R
SHERIDAN       CLOUDY    75  58  55 N13       29.99R
BUFFALO WY     CLOUDY    73  52  47 NW22G33   30.04R
CODY           CLOUDY    71  55  56 SE14      30.05S
YELLOWSTONE LA   N/A     68  52  56 VRB3      30.26F
IDAHO FALLS    SUNNY     87  40  19 S14       30.00F
BOISE          SUNNY     91  37  15 N15       29.94F
SPOKANE        PTSUNNY   77  42  28 W18       30.01S
$$

REGIONAL REPORTS...ALBERTA

CITY           SKY/WX    TMP DP  RH WIND       PRES   REMARKS
EDMONTON       SUNNY     72  59  64 NE10G18   29.77S
CALGARY        MOSUNNY   79  37  22 W7        29.79F
LETHBRIDGE     MOSUNNY   86  43  22 SW15      29.81S
MEDICINE HAT   PTSUNNY   90  39  17 N13       29.74F
WATERTON GATE    N/A     75  37  25 SW16G24     N/A
MILK RIVER       N/A     84  39  20 W18G24      N/A
$$

REGIONAL REPORTS...SASKATCHEWAN

CITY           SKY/WX    TMP DP  RH WIND       PRES   REMARKS
SWIFT CURRENT  MOSUNNY   81  45  28 SE9       29.80S
REGINA         MOSUNNY   82  55  39 SE14      29.82F
SASKATOON      CLOUDY    73  57  56 NE16G23   29.86R
CYPRESS HILLS    N/A     73  43  33 NE6         N/A
VAL MARIE        N/A     90  39  17 SE12        N/A
ROCKGLEN         N/A     82  46  28 SE10        N/A
ASSINIBOIA       N/A     73  57  56 E13G18      N/A
$$




USA.gov is the U.S. government's official web portal to all federal, state and local government web resources and services.